SCP
0 0 0 0 0 0 0 0 0 0 0 0 0 0 0 0 0 0 0 0 0 0 0 0 0 0 0 0 0 0 0 0 0 0 0 0 0 0
0 0 0 0 0 0 0 0 0 0 0 0 0 0 0 0 0 0 0 0 0 0 0 0 0 0 0 0 0 0 0 0 0 0 0 0 0 0
0 0 0 0 0 0 0 0 0 0 0 0 0 0 0 0 0 0 0 0 0 0 0 0 0 0 0 0 0 0 0 0 0 0 0 0 0 0
0 0 0 0 0 0 0 0 0 0 0 0 0 0 0 0 0 0 0 0 0 0 0 0 0 0 0 0 0 0 0 0 0 0 0 0 0 0
0 0 0 0 0 0 0 0 0 0 0 0 0 0 0 0 0 0 0 0 0 0 0 0 0 0 0 0 0 0 0 0 0 0 0 0 0 0
0 0 0 0 0 0 0 0 0 0 0 0 0 0 0 0 0 0 0 0 0 0 0 0 0 0 0 0 0 0 0 0 0 0 0 0 0 0
0 0 0 0 0 0 0 0 0 0 0 0 0 0 0 0 0 0 0 0 0 0 0 0 0 0 0 0 0 0 0 0 0 0 0 0 0 0
0 0 0 0 0 0 0 0 0 0 0 0 0 0 0 0 0 0 0 0 0 0 0 0 0 0 0 0 0 0 0 0 0 0 0 0 0 0
0 0 0 0 0 0 0 0 0 0 0 0 0 0 0 0 0 0 0 0 0 0 0 0 0 0 0 0 0 0 0 0 0 0 0 0 0 0
0 0 0 0 0 0 0 0 0 0 0 0 0 0 0 0 0 0 0 0 0 0 0 0 0 0 0 0 0 0 0 0 0 0 0 0 0 0
0 0 0 0 0 0 0 0 0 0 0 0 0 0 0 0 0 0 0 0 0 0 0 0 0 0 0 0 0 0 0 0 0 0 0 0 0 0
0 0 0 0 0 0 0 0 0 0 0 0 0 0 0 0 0 0 0 0 0 0 0 0 0 0 0 0 0 0 0 0 0 0 0 0 0 0
0 0 0 0 0 0 0 0 0 0 0 0 0 0 0 0 0 0 0 0 0 0 0 0 0 0 0 0 0 0 0 0 0 0 0 0 0 0
0 0 0 0 0 0 0 0 0 0 0 0 0 0 0 0 0 0 0 0 0 0 0 0 0 0 0 0 0 0 0 0 0 0 0 0 0 0
0 0 0 0 0 0 0 0 0 0 0 0 0 0 0 0 0 0 0 0 0 0 0 0 0 0 0 0 0 0 0 0 0 0 0 0 0 0
0 0 0 0 0 0 0 0 0 0 0 0 0 0 0 0 0 0 0 0 0 0 0 0 0 0 0 0 0 0 0 0 0 0 0 0 0 0
0 0 0 0 0 0 0 0 0 0 0 0 0 0 0 0 0 0 0 0 0 0 0 0 0 0 0 0 0 0 0 0 0 0 0 0 0 0
0 0 0 0 0 0 0 0 0 0 0 0 0 0 0 0 0 0 0 0 0 0 0 0 0 0 0 0 0 0 0 0 0 0 0 0 0 0
0 0 0 0 0 0 0 0 0 0 0 0 0 0 0 0 0 0 0 0 0 0 0 0 0 0 0 0 0 0 0 0 0 0 0 0 0 0
0 0 0 0 0 0 0 0 0 0 0 0 0 0 0 0 0 0 0 0 0 0 0 0 0 0 0 0 0 0 0 0 0 0 0 0 0 0
0 0 0 0 0 0 0 0 0 0 0 0 0 0 0 0 0 0 0 0 0 0 0 0 0 0 0 0 0 0 0 0 0 0 0 0 0 0
0 0 0 0 0 0 0 0 0 0 0 0 0 0 0 0 0 0 0 0 0 0 0 0 0 0 0 0 0 0 0 0 0 0 0 0 0 0
0 0 0 0 0 0 0 0 0 0 0 0 0 0 0 -0 -0 0 0 0 0 0 0 0 0 0 0 0 0 0 0 0 0 0 0 0 0 0
Wind_Speed
8 8 6 5 5 4 4 5 6 5 2 0 0 1 1 0 1 1 2 4 4 3 2 1 1 2 2 3 4 4 5 6 6 7 8 9 10 11
7 9 8 5 6 5 5 4 3 5 4 2 0 1 1 1 2 1 2 4 3 3 2 1 1 1 1 2 3 3 4 4 5 7 8 9 9 10
8 9 9 7 6 5 5 5 4 4 6 3 1 2 2 2 3 2 2 2 2 3 2 2 1 1 1 1 2 3 3 4 5 6 7 8 9 10
8 9 8 7 8 6 5 6 5 4 5 5 2 3 3 2 2 2 3 2 2 3 3 2 1 1 1 1 1 2 2 3 4 5 6 7 8 9
8 9 8 8 8 6 6 6 5 5 5 5 3 2 2 2 2 3 3 3 3 3 3 3 2 2 2 2 2 2 2 3 3 4 5 6 7 8
8 8 7 7 6 6 6 6 6 6 5 4 3 2 2 2 2 2 2 3 2 3 4 3 3 3 3 3 3 3 3 3 4 4 4 5 6 7
8 8 8 9 9 5 4 4 5 5 4 4 3 2 2 2 2 2 2 2 2 2 3 2 2 2 2 3 3 3 4 4 4 4 5 5 5 6
7 7 7 9 10 10 9 7 5 4 4 3 2 1 0 1 1 1 1 2 2 2 3 2 2 2 2 2 4 5 5 5 5 5 5 5 5 5
6 6 6 7 7 6 8 9 8 6 4 3 2 2 2 2 1 0 0 1 2 2 2 2 2 3 3 3 5 5 5 5 5 6 6 6 5 5
6 6 5 6 6 5 5 6 5 4 2 1 2 3 3 3 2 1 1 2 3 2 2 2 2 3 3 3 4 5 5 5 6 6 6 6 6 5
5 5 5 5 6 6 5 5 4 4 3 3 2 3 5 5 4 2 1 1 2 1 1 2 2 3 3 3 3 4 5 6 6 6 6 6 6 5
4 4 6 5 5 5 4 3 3 3 4 4 3 3 2 1 5 4 2 1 1 2 1 2 2 2 3 3 3 3 3 4 5 6 6 6 5 4
3 3 3 6 5 4 2 1 1 2 2 2 2 3 2 2 1 2 3 3 3 3 2 2 2 1 2 4 4 3 3 3 3 3 4 5 5 4
2 2 3 5 4 4 2 2 1 1 1 2 3 3 3 3 3 3 3 5 6 6 4 3 3 2 2 3 4 4 3 2 2 3 3 4 4 4
2 4 4 5 5 4 7 6 4 2 2 2 3 2 3 4 4 3 2 2 4 5 5 5 5 3 3 3 4 3 4 3 2 3 4 4 3 2
3 4 6 7 6 5 5 5 4 3 2 2 2 2 3 3 3 3 3 3 3 3 2 3 4 5 3 4 4 4 3 4 3 3 4 4 3 3
2 3 4 4 4 4 3 3 3 3 3 2 2 3 3 3 3 3 2 2 2 3 4 3 2 4 7 5 4 5 4 4 4 3 3 4 4 3
2 2 2 2 2 3 3 3 2 3 3 2 2 3 3 3 3 3 2 2 3 3 3 3 4 3 2 4 7 6 4 4 3 3 3 3 4 3
2 1 1 1 1 2 2 2 2 2 2 2 2 3 3 3 3 3 4 3 3 4 3 3 2 3 4 5 4 5 4 4 4 3 3 3 4 5
1 0 1 1 1 1 2 2 2 2 2 2 3 3 3 3 3 4 4 4 4 4 4 3 2 2 3 4 5 4 5 5 3 4 3 3 5 6
1 1 1 1 1 1 1 1 1 2 2 2 2 3 3 3 3 4 4 5 4 3 5 5 4 5 4 3 4 4 3 5 7 4 4 4 4 3
2 2 2 1 1 1 1 1 1 1 2 2 3 3 3 3 4 5 5 4 4 4 4 5 5 3 1 2 3 4 5 4 3 7 9 6 4 4
2 2 2 2 2 1 1 2 2 2 2 2 3 3 3 3 3 4 4 4 4 5 4 5 4 3 2 2 3 3 5 5 4 4 2 4 9 12
Wind_Direction
69 70 68 59 64 75 103 126 132 133 125 146 63 12 4 3 332 341 329 323 330 334 333 327 343 357 0 8 11 12 13 10 8 8 6 4 2 360
65 68 64 62 65 70 82 80 94 121 127 138 99 17 10 20 28 0 324 328 341 346 346 341 336 337 350 355 0 3 8 7 4 3 2 360 357 355
61 68 65 63 70 69 75 79 81 97 114 100 60 29 38 32 15 8 2 354 347 353 4 16 13 359 352 354 356 357 2 0 357 356 356 354 353 352
62 66 63 68 65 62 70 74 75 79 113 111 66 37 37 20 4 10 12 14 360 4 15 16 13 357 330 329 342 350 346 346 349 348 348 349 350 349
63 65 62 70 68 67 72 75 75 79 85 104 82 42 33 19 13 11 9 360 357 11 11 8 4 351 329 317 302 305 312 318 325 328 332 337 341 342
62 63 62 66 72 75 78 81 87 86 86 91 82 52 34 11 26 16 0 356 346 354 360 358 355 346 336 322 306 294 292 294 300 304 312 323 332 337
57 54 58 63 66 69 87 95 97 94 91 86 76 56 33 21 19 352 343 329 323 350 331 339 340 328 321 316 304 294 289 287 289 294 300 306 317 329
57 49 52 48 51 59 74 88 107 113 113 103 94 91 355 306 317 340 343 350 333 359 330 314 329 303 299 294 297 295 287 283 283 287 290 295 307 322
57 50 48 41 48 59 63 65 65 80 121 138 149 190 215 218 215 290 279 285 283 316 325 302 313 295 296 298 307 298 288 284 285 287 288 289 295 307
56 54 55 40 42 60 68 63 56 50 61 156 203 225 234 226 211 245 279 279 273 260 253 288 309 298 304 301 302 302 295 291 289 289 289 287 288 294
45 45 50 47 40 60 70 63 48 22 16 15 255 258 257 241 200 189 221 322 327 306 232 272 301 307 298 292 300 308 302 296 292 291 293 294 292 291
36 29 35 36 37 57 71 65 43 0 351 359 10 7 3 342 189 200 212 228 282 290 237 252 293 315 306 292 298 311 311 300 298 294 296 299 298 289
35 10 359 7 28 51 76 88 306 314 342 359 6 12 18 25 39 226 220 220 235 256 243 221 270 269 276 297 302 300 308 307 311 300 300 302 292 269
23 341 330 357 34 48 49 35 47 64 50 36 28 14 1 351 339 322 263 234 239 254 259 227 259 249 269 288 293 303 304 296 294 298 309 308 291 260
354 353 13 40 55 51 45 49 56 57 51 40 21 355 328 313 313 320 322 291 260 250 244 222 226 239 238 260 281 292 307 308 300 301 306 307 300 295
12 13 34 50 53 46 38 35 37 39 45 27 353 329 324 334 348 350 347 347 340 326 303 237 232 227 241 243 251 273 276 284 301 307 302 292 280 261
8 30 30 27 28 22 21 25 26 30 31 13 359 354 354 355 354 347 345 340 338 324 322 323 279 246 242 249 266 267 276 280 278 297 302 299 291 279
64 49 35 26 20 8 360 360 10 16 10 0 3 2 356 351 347 350 345 337 328 316 312 317 327 325 295 239 222 263 281 277 289 284 269 285 291 288
70 51 29 7 354 347 344 344 350 355 351 357 4 1 352 348 349 349 349 339 329 319 314 316 317 326 323 317 304 214 243 290 298 291 265 253 271 288
47 356 323 322 322 327 335 341 346 356 6 6 4 358 353 347 345 344 343 334 321 314 313 316 313 301 281 295 303 299 238 249 277 289 293 275 268 275
321 298 285 289 297 307 319 329 337 348 353 347 346 345 344 338 335 333 329 325 319 315 317 317 316 302 267 261 276 287 288 236 235 258 291 299 304 311
274 279 278 271 276 284 297 306 317 327 335 334 331 330 329 324 324 326 325 324 318 309 298 301 317 320 266 281 300 307 313 321 284 241 240 244 283 309
252 255 254 259 256 255 260 272 283 296 302 309 314 318 321 319 317 314 313 312 312 320 323 324 335 338 327 311 311 310 316 324 330 330 316 261 248 259